Weather History for KNYL - May, 2012

Change the Weather History Date:

Monday, May 28, 2012

  Actual Average Record
Temperature  
Mean Temperature 79 °F 84 °F  
Max Temperature 95 °F 99 °F 116 °F (1983)
Min Temperature 63 °F 70 °F 51 °F (1908)
Degree Days  
Heating Degree Days 0 0  
Month to date heating degree days 0 0  
Since 1 July heating degree days 697 686  
Cooling Degree Days 14 19  
Month to date cooling degree days 507 446  
Year to date cooling degree days 897 852  
Growing Degree Days 28 (Base 50)    
Moisture  
Dew Point 29 °F    
Average Humidity 22    
Maximum Humidity 37    
Minimum Humidity 6    
Precipitation  
Precipitation 0.00 in 0.00 in 0.01 in (1990)
Month to date precipitation 0.00 0.07  
Year to date precipitation 0.09 1.31  
Sea Level Pressure  
Sea Level Pressure 29.84 in    
Wind  
Wind Speed 4 mph (SSW)    
Max Wind Speed 13 mph    
Max Gust Speed 16 mph    
Visibility 10 miles    
Events      
T = Trace of Precipitation, MM = Missing Value Source: NWS Daily Summary

Daily Weather History Graph

Daily Weather History Graph

Search for Another Location

Airport or City:

Trip Planner

Search our weather history database for the weather conditions in past years. The results will help you decide how hot, cold, wet, or windy it might be!

Date:

Astronomy

May. 28, 2012 Rise Set
Actual Time 5:32 AM MST 7:39 PM MST
Civil Twilight 5:04 AM MST 8:07 PM MST
Nautical Twilight 4:30 AM MST 8:41 PM MST
Astronomical Twilight 3:54 AM MST 9:17 PM MST
Moon 12:31 PM MST (5/28) 12:32 AM MST (5/28)
Length of Visible Light 15h 02m
Length of Day
14h 06m
Waxing Crescent, 49% of the Moon is Illuminated
May 28
Waxing Crescent
May 28
First Quarter
Jun 4
Full
Jun 11
Last Quarter
Jun 19
New

Hourly Weather History & Observations

Time (MST) Temp. Dew Point Humidity Pressure Visibility Wind Dir Wind Speed Gust Speed Precip Events Conditions
12:55 AM 70.0 °F 37.0 °F 30% 29.86 in 10.0 mi SSE 3.5 mph - N/A   Clear
1:00 AM - - N/A% - - North - - N/A   Unknown
1:55 AM 69.1 °F 36.0 °F 30% 29.85 in 10.0 mi Calm Calm - N/A   Clear
2:55 AM 66.9 °F 35.1 °F 31% 29.85 in 10.0 mi Calm Calm - N/A   Clear
3:55 AM 66.9 °F 36.0 °F 32% 29.84 in 10.0 mi Calm Calm - N/A   Clear
4:55 AM 64.0 °F 36.0 °F 35% 29.85 in 10.0 mi South 3.5 mph - N/A   Clear
5:55 AM 64.0 °F 37.0 °F 37% 29.87 in 10.0 mi Calm Calm - N/A   Clear
6:55 AM 66.0 °F 34.0 °F 30% 29.88 in 10.0 mi WSW 3.5 mph - N/A   Clear
7:55 AM 73.0 °F 36.0 °F 26% 29.89 in 10.0 mi NW 3.5 mph - N/A   Clear
8:55 AM 80.1 °F 30.9 °F 17% 29.90 in 10.0 mi Calm Calm - N/A   Clear
9:55 AM 84.0 °F 30.9 °F 15% 29.89 in 10.0 mi Calm Calm - N/A   Clear
10:55 AM 89.1 °F 26.1 °F 10% 29.89 in 10.0 mi NE 4.6 mph - N/A   Clear
11:55 AM 91.0 °F 21.0 °F 8% 29.88 in 10.0 mi Variable 4.6 mph - N/A   Clear
12:55 PM 93.0 °F 19.0 °F 7% 29.87 in 10.0 mi WSW 5.8 mph - N/A   Clear
1:55 PM 93.0 °F 18.0 °F 6% 29.84 in 10.0 mi Variable 5.8 mph - N/A   Clear
2:55 PM 93.9 °F 19.0 °F 7% 29.83 in 10.0 mi SSE 9.2 mph - N/A   Clear
3:55 PM 93.9 °F 19.0 °F 7% 29.82 in 10.0 mi SSE 6.9 mph - N/A   Clear
4:55 PM 93.9 °F 18.0 °F 6% 29.80 in 10.0 mi Calm Calm - N/A   Clear
5:55 PM 93.9 °F 19.0 °F 7% 29.79 in 10.0 mi SW 3.5 mph - N/A   Clear
6:55 PM 91.9 °F 24.1 °F 9% 29.78 in 10.0 mi West 5.8 mph - N/A   Clear
7:55 PM 89.1 °F 25.0 °F 10% 29.78 in 10.0 mi WSW 4.6 mph - N/A   Clear
8:55 PM 84.9 °F 28.9 °F 13% 29.79 in 10.0 mi SSW 3.5 mph - N/A   Clear
9:55 PM 80.1 °F 36.0 °F 20% 29.81 in 10.0 mi South 8.1 mph - N/A   Clear
10:29 PM - - N/A% - - North - - N/A   Unknown
10:55 PM 78.1 °F 39.0 °F 25% 29.82 in 10.0 mi SSE 8.1 mph - N/A   Clear
11:55 PM 75.0 °F 39.0 °F 27% 29.81 in 10.0 mi SSW 3.5 mph - N/A   Clear